Weather History for Patuxent River, MD

Change the Weather History Date:

Wednesday, March 14, 2012

  Actual Average Record
Temperature  
Mean Temperature 64 °F -  
Max Temperature 75 °F 55 °F 80 °F (2007)
Min Temperature 54 °F 36 °F 19 °F (2014)
Growing Degree Days 14 (Base 50)    
Moisture  
Dew Point 49 °F    
Average Humidity 60    
Maximum Humidity 86    
Minimum Humidity 33    
Precipitation  
Precipitation 0.00 in - - ()
Sea Level Pressure  
Sea Level Pressure 30.14 in    
Wind  
Wind Speed 7 mph (South)    
Max Wind Speed 10 mph    
Max Gust Speed -    
Visibility 10 miles    
Events      
Averages and records for this station are not official NWS values.
T = Trace of Precipitation, MM = Missing Value Source: NWS Daily Summary

Daily Weather History Graph

Daily Weather History Graph

Search for Another Location

Airport:

Trip Planner

Search our weather history database for the weather conditions in past years. The results will help you decide how hot, cold, wet, or windy it might be!

Date:

Astronomy

Mar. 14, 2012 Rise Set
Actual Time 7:17 AM EDT 7:12 PM EDT
Civil Twilight 6:51 AM EDT 7:38 PM EDT
Nautical Twilight 6:20 AM EDT 8:09 PM EDT
Astronomical Twilight 5:49 AM EDT 8:40 PM EDT
Moon 1:39 AM EDT (3/14) 11:31 AM EDT (3/14)
Length of Visible Light 12h 47m
Length of Day
11h 54m
Waning Gibbous, 54% of the Moon is Illuminated
Mar 14
Waning Gibbous
Mar 14
Last Quarter
Mar 22
New
Mar 30
First Quarter
Apr 6
Full

Hourly Weather History & Observations

Time (EDT) Temp. Dew Point Humidity Pressure Visibility Wind Dir Wind Speed Gust Speed Precip Events Conditions
12:52 AM 64.9 °F 55.9 °F 73% 30.07 in 10.0 mi SW 10.4 mph - N/A   Clear
1:52 AM 64.9 °F 55.0 °F 70% 30.07 in 10.0 mi SSW 10.4 mph - N/A   Clear
2:52 AM 64.0 °F 55.0 °F 73% 30.06 in 10.0 mi SSW 9.2 mph - N/A   Clear
3:52 AM 62.1 °F 54.0 °F 75% 30.06 in 10.0 mi SW 6.9 mph - N/A   Clear
4:52 AM 55.0 °F 51.1 °F 86% 30.08 in 10.0 mi WSW 5.8 mph - N/A   Clear
5:52 AM 55.9 °F 50.0 °F 80% 30.09 in 10.0 mi WSW 5.8 mph - N/A   Clear
6:02 AM 55.4 °F 50.0 °F 82% 30.09 in 10.0 mi WSW 5.8 mph - N/A   Clear
6:52 AM 54.0 °F 48.9 °F 83% 30.11 in 10.0 mi WSW 6.9 mph - N/A   Partly Cloudy
7:52 AM 54.0 °F 50.0 °F 86% 30.14 in 10.0 mi WSW 4.6 mph - N/A   Partly Cloudy
8:52 AM 62.1 °F 53.1 °F 72% 30.17 in 10.0 mi Calm Calm - N/A   Partly Cloudy
9:52 AM 68.0 °F 48.9 °F 50% 30.19 in 10.0 mi WNW 4.6 mph - N/A   Scattered Clouds
10:52 AM 72.0 °F 48.0 °F 43% 30.19 in 10.0 mi WNW 6.9 mph - N/A   Mostly Cloudy
11:52 AM 71.1 °F 48.0 °F 44% 30.20 in 10.0 mi NNE 10.4 mph - N/A   Scattered Clouds
12:52 PM 73.0 °F 46.0 °F 38% 30.19 in 10.0 mi North 8.1 mph - N/A   Scattered Clouds
1:52 PM 75.0 °F 45.0 °F 34% 30.18 in 10.0 mi North 6.9 mph - N/A   Partly Cloudy
2:52 PM 73.0 °F 43.0 °F 34% 30.16 in 10.0 mi East 5.8 mph - N/A   Partly Cloudy
3:52 PM 73.9 °F 43.0 °F 33% 30.15 in 10.0 mi ESE 8.1 mph - N/A   Partly Cloudy
4:52 PM 72.0 °F 46.0 °F 40% 30.14 in 10.0 mi ESE 9.2 mph - N/A   Clear
5:52 PM 68.0 °F 46.0 °F 45% 30.15 in 10.0 mi ESE 8.1 mph - N/A   Partly Cloudy
6:52 PM 62.1 °F 48.0 °F 60% 30.16 in 10.0 mi SE 4.6 mph - N/A   Partly Cloudy
7:52 PM 60.1 °F 48.0 °F 64% 30.17 in 10.0 mi Calm Calm - N/A   Clear
8:52 PM 57.0 °F 46.0 °F 67% 30.18 in 10.0 mi SSE 4.6 mph - N/A   Clear
9:52 PM 63.0 °F 43.0 °F 48% 30.19 in 10.0 mi SSE 4.6 mph - N/A   Clear
10:52 PM 64.9 °F 45.0 °F 48% 30.20 in 10.0 mi SSE 3.5 mph - N/A   Clear
11:52 PM 55.0 °F 46.0 °F 72% 30.19 in 10.0 mi ESE 3.5 mph - N/A   Clear